Regional Weather Roundup
Issued by NWS

Home | Current Version | Previous Version | Text Only | Print | Product List | Glossary On
Versions: 1 2 3 4 5 6 7 8 9 10 11 12 13 14 15 16 17 18 19 20 21 22 23 24 25 26 27 28 29 30 31 32 33 34 35 36 37 38 39 40 41 42 43 44 45 46 47 48 49 50
000
ASUS45 KREV 261910
RWRNV
NEVADA REGIONAL WEATHER ROUNDUP
NATIONAL WEATHER SERVICE RENO NV
1200 PM PDT SAT JUL 26 2014

NOTE: "FAIR" INDICATES FEW OR NO CLOUDS BELOW 12,000 FEET WITH NO
SIGNIFICANT WEATHER AND/OR OBSTRUCTIONS TO VISIBILITY.

NVZ001-003-004-262000-
WESTERN NEVADA

CITY           SKY/WX    TMP DP  RH WIND       PRES   REMARKS
RENO           MOSUNNY   86  31  13 NW5       30.16F
CARSON CITY    FAIR      84  27  12 CALM      30.18F
SLIDE MTN        N/A     63  32  31 SW6         N/A
PYRAMID LAKE     N/A     79 N/A N/A NE3         N/A
FALLON         PTSUNNY   91  29  11 VRB3      30.12F
LOVELOCK       SUNNY     89  28  11 VRB5      30.11F
HAWTHORNE      SUNNY     88  30  12 N6        30.13F
$$

NVZ002-CAZ072-073-262000-
NORTHERN AND CENTRAL SIERRA

CITY           SKY/WX    TMP DP  RH WIND       PRES   REMARKS
S. LAKE TAHOE  SUNNY     78  36  21 NE9       30.28S
SQUAW VLY 8000 NOT AVBL
SUSANVILLE     SUNNY     84  27  12 E5        30.15F
BLUE CANYON    SUNNY     79  32  18 VRB5      30.25R
MAMMOTH LAKES  FAIR      84  18   8 SE8       30.33S
BRIDGEPORT     FAIR      85  13   7 S13       30.27S
$$

NVZ030-031-036-262000-
NORTHERN NEVADA

CITY           SKY/WX    TMP DP  RH WIND       PRES   REMARKS
ELKO           SUNNY     87  25  10 CALM      30.19F
WINNEMUCCA     SUNNY     89  28  11 NW3       30.14F
WENDOVER       SUNNY     88  30  12 E9        30.17F
$$

NVZ035-037-262000-
CENTRAL NEVADA

CITY           SKY/WX    TMP DP  RH WIND       PRES   REMARKS
ELY            SUNNY     85  35  16 VRB3      30.27F
EUREKA           N/A     87  24  10 N7        30.23F
$$

NVZ013-014-262000-
SOUTH CENTRAL NEVADA

CITY           SKY/WX    TMP DP  RH WIND       PRES   REMARKS
TONOPAH        SUNNY     88  25  10 SW6       30.22S
$$

NVZ017-020-022-262000-
SOUTHERN NEVADA

CITY           SKY/WX    TMP DP  RH WIND       PRES   REMARKS
LAS VEGAS      MOSUNNY  100  52  19 S6        29.94F
N. LAS VEGAS   SUNNY     98  53  22 SE10G20   29.97F
NELLIS AFB     SUNNY     99  59  26 E12G28    29.95F
HENDERSON      SUNNY    101  55  21 SE10      30.01F
MERCURY        SUNNY    100  32   9 SW16G22   30.05F
$$



USA.gov is the U.S. government's official web portal to all federal, state and local government web resources and services.